Tracking 34794 objects as of 19-Jul-2026
HD Live streaming from Space Station
objects crossing your sky now

STARLINK-11338

Track STARLINK-11338 now!
10-day predictions
STARLINK-11338 is classified as:


NORAD ID: 61534
Int'l Code: 2024-184C
Perigee: 366.3 km
Apogee: 367.0 km
Inclination: 53.2 °
Period: 91.7 minutes
Semi major axis: 6737 km
RCS: Unknown
Launch date: October 15, 2024
Source: United States (US)
Launch site: AIR FORCE WESTERN TEST RANGE (AFWTR)
Your satellite tracking list
Your tracking list is empty




NASA's NSSDC Master Catalog

Two Line Element Set (TLE):
1 61534U 24184C   26199.70028889 -.00015372  00000-0 -12188-3 0  9990
2 61534  53.1595 310.4589 0000479  18.7282 341.3754 15.69785899100990
Source of the keplerian elements: AFSPC